Powrót do katalogu

ONEWEB-0406

AktywnyŁącznośćPO
NORAD 50486·PAYLOAD·🇬🇧 United Kingdom

Wystrzelony Dec 27, 2021 z Baikonur Cosmodrome

Loading…

Następne Przeloty (najbliższe 24 godziny)

TLE

ŚwieżeSource: CelesTrak SupGP

Epoka: Sep 14, 2026, 19:59 UTC

1 50486C 21132T   26257.83316389 -.00002755  00000+0 -69955-2 0  2578
2 50486  87.9162 317.6466 0002142 113.8089 358.8630 13.18688162    18

Śledź ONEWEB-0406 w czasie rzeczywistym z AllMySat

Download on the App Store